Location: PSU-Greenbush Astrophysical Observatory
(37.5140°N, 94.9880°W)
Time: 12:07:11
(UTC-06:00)

N. Korean satellite - Visible Passes

Search period start: 14 December 2019 00:00
Search period end: 24 December 2019 00:00
Orbit: 455 x 507 km, 97.2° (Epoch: 13 December)

Date Brightness Start Highest point End Pass type
(mag) Time Alt. Az. Time Alt. Az. Time Alt. Az.
14 Dec 9.8 05:14:49 10° ENE 05:16:39 14° E 05:18:29 10° SE visible
14 Dec 7.4 06:47:06 10° NNW 06:50:05 27° WNW 06:53:02 10° SW visible
15 Dec 6.4 06:21:19 10° N 06:24:46 62° WNW 06:28:08 10° SSW visible
15 Dec 10.0 18:29:29 10° SW 18:31:24 14° W 18:33:19 10° WNW visible
16 Dec 7.3 05:55:55 10° NNE 05:59:20 52° E 06:02:40 10° S visible
16 Dec 8.9 18:02:37 10° SSW 18:05:50 28° W 18:09:02 10° NW visible
17 Dec 9.0 05:31:00 10° NE 05:33:47 23° E 05:36:34 10° SSE visible
17 Dec 7.2 17:36:42 10° S 17:40:21 64° W 17:43:59 10° NNW visible
18 Dec 10.1 05:07:29 10° E 05:08:11 10° E 05:08:53 10° ESE visible
18 Dec 7.1 06:38:33 10° N 06:41:43 34° WNW 06:44:51 10° SW visible
19 Dec 6.3 06:12:53 10° N 06:16:20 84° WNW 06:19:45 10° SSW visible
19 Dec 9.8 18:20:30 10° SW 18:22:58 17° W 18:25:25 10° NW visible
20 Dec 7.9 05:47:37 10° NNE 05:50:53 39° E 05:54:06 10° S visible
20 Dec 8.4 17:54:02 10° SSW 17:57:25 35° W 18:00:48 10° NNW visible
21 Dec 9.4 05:22:55 10° NE 05:25:19 18° E 05:27:42 10° SE visible
21 Dec 7.7 06:56:01 10° NNW 06:58:38 20° WNW 07:01:13 10° WSW visible
21 Dec 6.7 17:28:18 10° S 17:31:57 84° WSW 17:35:35 10° NNW visible
22 Dec 6.7 06:30:01 10° N 06:33:19 45° WNW 06:36:35 10° SSW visible
22 Dec 10.5 18:40:05 10° W 18:40:07 10° W 18:40:10 10° W visible
23 Dec 6.6 06:04:28 10° NNE 06:07:55 73° ESE 06:11:19 10° S visible
23 Dec 9.5 18:11:41 10° SSW 18:14:31 21° W 18:17:20 10° NW visible
